[[{"header":{"parameterUnit":"m.s-1","parameterCategory":1,"la1":30.2991,"la2":30.254,"lo1":-89.0895,"lo2":-89.0444,"dy":0.0017,"dx":0.0017,"nx":28,"ny":28,"refTime":"2025-07-16T03:00:00:Z","depth":0,"parameterNumber":2,"parameterNumberName":"U-component_of_WINDS"},"data":[0,0,0,0,0,0,0,0,0,0,0,0,0,0,0,0,0,0,0,0,0,0,0,0,0,0,0,0,0,0,0,0,0,0,0,0,0,0,0,0,0,0,0,0,0,0,0,0,0,0,0,0,0,0,0,0,0,0,-3.1094,-3.1095,0,-3.1154,-3.1154,-3.1155,-3.1191,-3.1192,-3.1192,-3.1192,-3.1254,-3.1256,-3.1257,0,0,0,0,0,0,0,0,0,0,0,0,0,-3.1013,-3.1015,-3.1094,-3.1095,-3.1096,-3.1154,-3.1154,-3.1155,-3.1191,-3.1192,-3.1192,-3.1192,-3.1254,-3.1256,-3.1257,0,0,0,0,0,0,0,0,0,0,0,0,0,-3.1058,-3.1015,-3.1094,-3.1121,-3.1124,-3.1153,-3.1154,-3.1155,-3.1191,-3.1192,-3.1192,-3.1192,-3.1253,-3.1255,-3.1258,-3.1266,0,0,-3.1264,-3.1265,0,0,0,0,0,0,0,0,-3.1056,-3.1061,-3.1116,-3.1119,-3.1122,-3.1165,-3.1149,-3.1193,-3.1191,-3.1166,-3.1192,-3.1192,-3.1225,-3.1229,-3.124,-3.1269,-3.1272,-3.1265,-3.1266,-3.1267,-3.1268,0,0,0,0,0,0,0,-3.1052,-3.1059,-3.1118,-3.1117,-3.1121,-3.113,-3.1137,-3.1157,-3.1193,-3.1168,-3.1171,-3.1177,-3.1226,-3.1238,-3.1242,-3.1272,-3.1265,-3.1267,-3.1268,-3.1269,-3.1311,-3.1311,0,0,0,0,0,0,-3.1045,-3.1056,-3.1116,-3.112,-3.1089,-3.1131,-3.1139,-3.1151,-3.1193,-3.1199,-3.1177,-3.1179,-3.1234,-3.1239,-3.1244,-3.1256,-3.1267,-3.1269,-3.127,-3.1311,-3.1311,-3.1311,0,0,0,0,0,0,-3.1043,-3.105,-3.1114,-3.1089,-3.1097,-3.1132,-3.1146,-3.1152,-3.1164,-3.12,-3.1206,-3.1182,-3.1234,-3.1241,-3.126,-3.1259,-3.127,-3.1272,-3.1312,-3.1311,-3.1311,-3.128,0,0,0,0,0,0,-3.1041,-3.1049,-3.1052,-3.1088,-3.1099,-3.1128,-3.1146,-3.1153,-3.1167,-3.117,-3.1206,-3.1212,-3.1235,-3.1256,-3.1262,-3.1262,-3.1274,-3.1312,-3.1312,-3.1311,-3.1281,-3.1279,-3.1277,0,0,0,0,0,-3.1038,-3.1042,-3.1052,-3.1059,-3.1103,-3.1128,-3.1134,-3.1159,-3.1167,-3.117,-3.1194,-3.1211,-3.1258,-3.1258,-3.1265,-3.1265,-3.1312,-3.1312,-3.1311,-3.1283,-3.1279,-3.1277,0,0,0,0,0,0,-3.1005,-3.1047,-3.1059,-3.1075,-3.1097,-3.1134,-3.1139,-3.1155,-3.1177,-3.1179,-3.121,-3.1218,-3.1234,-3.1252,-3.1251,-3.1275,-3.1287,-3.1288,-3.1263,-3.126,-3.1258,-3.1253,-3.1276,0,0,0,0,0,-3.0999,-3.1016,-3.1052,-3.1062,-3.1073,-3.1104,-3.1116,-3.1133,-3.1158,-3.1168,-3.1193,-3.1217,-3.1237,-3.125,-3.1271,-3.1285,-3.1293,-3.1288,-3.1286,-3.1283,-3.1284,-3.1292,-3.129,-3.1309,-3.1309,-3.1309,0,0,-3.0989,-3.1013,-3.1022,-3.1056,-3.1076,-3.1092,-3.1112,-3.1128,-3.1141,-3.1171,-3.119,-3.1209,-3.1238,-3.1255,-3.1263,-3.127,-3.128,-3.1283,-3.1281,-3.1282,-3.1291,-3.1289,-3.1288,-3.1309,-3.1309,-3.1309,0,0,-3.0977,-3.0997,-3.1008,-3.1027,-3.1056,-3.1077,-3.108,-3.1114,-3.1127,-3.1147,-3.117,-3.1186,-3.122,-3.124,-3.1254,-3.1249,-3.1266,-3.1255,-3.1242,-3.125,-3.1249,-3.1247,-3.1245,-3.1244,-3.1256,-3.1255,-3.1255,0,-3.0959,-3.0984,-3.1011,-3.1026,-3.1041,-3.1068,-3.1079,-3.1097,-3.1132,-3.1141,-3.1148,-3.1192,-3.1213,-3.1234,-3.1233,-3.1244,-3.1248,-3.1251,-3.1246,-3.1246,-3.1245,-3.1243,-3.1242,-3.1254,-3.1254,-3.1254,-3.1254,0,-3.0961,-3.0978,-3.0983,-3.1015,-3.1031,-3.1043,-3.1073,-3.1085,-3.1102,-3.1122,-3.1141,-3.1168,-3.1195,-3.1201,-3.1218,-3.1225,-3.1228,-3.124,-3.1253,-3.1241,-3.124,-3.124,-3.1252,-3.1252,-3.1253,-3.1253,0,0,-3.093,-3.0977,-3.0978,-3.0993,-3.1027,-3.1041,-3.1055,-3.108,-3.109,-3.1113,-3.1126,-3.1154,-3.1166,-3.1182,-3.1202,-3.1208,-3.1202,-3.122,-3.1221,-3.1215,-3.1211,-3.1201,-3.12,-3.1214,-3.1214,-3.1214,-3.1209,0,-3.0923,-3.0949,-3.0974,-3.0991,-3.1007,-3.1034,-3.1046,-3.1069,-3.1088,-3.1105,-3.1127,-3.1146,-3.116,-3.117,-3.1178,-3.1201,-3.1202,-3.1202,-3.1226,-3.1227,-3.1217,-3.1199,-3.1189,-3.1182,-3.1208,-3.1208,-3.1208,0,-3.0917,-3.0938,-3.0957,-3.0989,-3.0997,-3.1008,-3.1033,-3.1048,-3.1075,-3.1088,-3.1106,-3.1126,-3.1143,-3.1154,-3.1178,-3.1177,-3.1189,-3.1202,-3.1202,-3.1205,-3.1216,-3.1201,-3.1181,-3.1179,-3.1208,-3.1208,-3.1208,0,-3.0891,-3.0925,-3.094,-3.0952,-3.099,-3.0997,-3.1014,-3.104,-3.1054,-3.1076,-3.1085,-3.1109,-3.1122,-3.1141,-3.1167,-3.1173,-3.1188,-3.1201,-3.1199,-3.1199,-3.1201,-3.12,-3.1181,-3.1209,-3.1209,-3.1209,-3.1209,0,-3.088,-3.089,-3.0929,-3.0938,-3.0951,-3.0979,-3.0991,-3.101,-3.1034,-3.1047,-3.1073,-3.1085,-3.112,-3.1136,-3.1157,-3.1173,-3.118,-3.1191,-3.1196,-3.1188,-3.1187,-3.1195,-3.1196,-3.1209,-3.1209,-3.1209,-3.1209,0,-3.0853,-3.0879,-3.0897,-3.0932,-3.0941,-3.0949,-3.0979,-3.0989,-3.101,-3.1027,-3.1033,-3.1066,-3.1087,-3.1115,-3.1145,-3.116,-3.1173,-3.1182,-3.1163,-3.1166,-3.1163,-3.1162,-3.1148,-3.1148,-3.1177,-3.1176,-3.1176,0,-3.0843,-3.0851,-3.0887,-3.0898,-3.0913,-3.093,-3.0944,-3.0973,-3.0986,-3.1017,-3.1023,-3.1046,-3.1066,-3.1099,-3.1126,-3.1149,-3.1158,-3.1152,-3.1162,-3.1153,-3.1157,-3.1156,-3.1156,-3.1149,-3.1148,-3.1148,-3.1148,0,-3.0823,-3.0836,-3.0854,-3.0877,-3.0892,-3.0912,-3.0933,-3.094,-3.0974,-3.0987,-3.1009,-3.1024,-3.1055,-3.1077,-3.1104,-3.1122,-3.114,-3.1144,-3.1145,-3.1136,-3.1125,-3.113,-3.1155,-3.1144,-3.1145,-3.1145,-3.1145,-3.1145,-3.0804,-3.0812,-3.0838,-3.0858,-3.0877,-3.0895,-3.0906,-3.0928,-3.0947,-3.0973,-3.099,-3.101,-3.1037,-3.1074,-3.1091,-3.1108,-3.1116,-3.1117,-3.1117,-3.1117,-3.1114,-3.1123,-3.1114,-3.1114,-3.1114,-3.1114,-3.1114,0,-3.0784,-3.0802,-3.082,-3.0848,-3.0863,-3.0879,-3.0903,-3.0915,-3.0932,-3.0955,-3.0974,-3.0999,-3.1021,-3.1049,-3.1073,-3.1081,-3.109,-3.1087,-3.1086,-3.1089,-3.1106,-3.1103,-3.1079,-3.1079,-3.1079,-3.1079,-3.1079,-3.1079,-3.0776,-3.079,-3.0806,-3.0831,-3.0849,-3.0869,-3.0881,-3.0898,-3.0917,-3.0943,-3.0961,-3.0979,-3.1005,-3.1031,-3.1051,-3.106,-3.1067,-3.106,-3.1071,-3.1085,-3.1088,-3.1091,-3.1088,-3.1062,-3.1062,-3.1053,-3.1052,-3.1052]},{"header":{"parameterUnit":"m.s-1","parameterCategory":1,"la1":30.2991,"la2":30.254,"lo1":-89.0895,"lo2":-89.0444,"dy":0.0017,"dx":0.0017,"nx":28,"ny":28,"refTime":"2025-07-16T03:00:00:Z","depth":0,"parameterNumber":3,"parameterNumberName":"V-component_of_WINDS"},"data":[0,0,0,0,0,0,0,0,0,0,0,0,0,0,0,0,0,0,0,0,0,0,0,0,0,0,0,0,0,0,0,0,0,0,0,0,0,0,0,0,0,0,0,0,0,0,0,0,0,0,0,0,0,0,0,0,0,0,0.6066,0.6066,0,0.6078,0.6079,0.6079,0.6107,0.6108,0.6108,0.6109,0.6119,0.6118,0.6118,0,0,0,0,0,0,0,0,0,0,0,0,0,0.6066,0.6066,0.6066,0.6066,0.6067,0.6078,0.6079,0.6079,0.6107,0.6108,0.6108,0.6109,0.6119,0.6118,0.6118,0,0,0,0,0,0,0,0,0,0,0,0,0,0.6071,0.6066,0.6066,0.6082,0.6084,0.6078,0.6079,0.6079,0.6107,0.6108,0.6109,0.6109,0.6119,0.6119,0.6118,0.6097,0,0,0.6117,0.6117,0,0,0,0,0,0,0,0,0.607,0.6071,0.608,0.6081,0.6083,0.6092,0.6082,0.6085,0.6107,0.6098,0.6109,0.611,0.6109,0.6109,0.611,0.6098,0.6098,0.6117,0.6116,0.6116,0.6116,0,0,0,0,0,0,0,0.607,0.607,0.6071,0.608,0.6082,0.6088,0.609,0.6083,0.6098,0.6099,0.6101,0.6102,0.611,0.611,0.611,0.6098,0.6117,0.6116,0.6116,0.6116,0.6071,0.607,0,0,0,0,0,0,0.6068,0.607,0.6071,0.6071,0.6079,0.6087,0.6089,0.6088,0.6098,0.6101,0.6101,0.6103,0.611,0.6111,0.6111,0.6087,0.6116,0.6116,0.6116,0.6072,0.6071,0.607,0,0,0,0,0,0,0.6068,0.6068,0.607,0.6071,0.6072,0.6087,0.6085,0.6088,0.6088,0.61,0.6103,0.6099,0.6111,0.6111,0.6101,0.6088,0.6116,0.6115,0.6073,0.6071,0.607,0.604,0,0,0,0,0,0,0.6068,0.6067,0.606,0.6071,0.6072,0.606,0.6084,0.6088,0.6088,0.609,0.6098,0.6101,0.6112,0.6101,0.61,0.6088,0.6115,0.6074,0.6072,0.6071,0.6042,0.6038,0.6034,0,0,0,0,0,0.6067,0.605,0.6059,0.6059,0.6063,0.606,0.606,0.6074,0.6086,0.6079,0.6087,0.61,0.609,0.61,0.6099,0.6086,0.6075,0.6073,0.6071,0.6044,0.6039,0.6034,0,0,0,0,0,0,0.6036,0.6052,0.6062,0.6048,0.6053,0.6065,0.6055,0.6068,0.6068,0.607,0.6087,0.6089,0.6076,0.608,0.6091,0.6067,0.6084,0.6082,0.6065,0.606,0.6056,0.6055,0.6115,0,0,0,0,0,0.6028,0.6025,0.6038,0.6025,0.6027,0.6041,0.604,0.605,0.6055,0.6056,0.6064,0.6067,0.6065,0.6062,0.6061,0.6043,0.6046,0.6034,0.603,0.6027,0.6024,0.6016,0.6011,0.6063,0.6063,0.6063,0,0,0.6011,0.6019,0.6015,0.6019,0.6023,0.6019,0.6042,0.6036,0.6033,0.6055,0.6046,0.6052,0.6057,0.6043,0.6037,0.6046,0.6011,0.6024,0.6021,0.6021,0.6013,0.6008,0.6004,0.6061,0.6061,0.6062,0,0,0.5976,0.5982,0.5972,0.5976,0.5983,0.5993,0.5991,0.6001,0.6006,0.5997,0.6014,0.601,0.6005,0.6008,0.6009,0.5977,0.599,0.5976,0.5955,0.5946,0.5942,0.5938,0.5927,0.5923,0.5974,0.5974,0.5974,0,0.5953,0.5948,0.5965,0.5958,0.5959,0.5981,0.597,0.5973,0.5979,0.5979,0.5989,0.5984,0.5989,0.5976,0.5969,0.5969,0.5966,0.5975,0.5941,0.5938,0.5935,0.5924,0.592,0.5972,0.5972,0.5973,0.5973,0,0.592,0.5916,0.5906,0.5912,0.5912,0.5904,0.5919,0.5917,0.5927,0.5936,0.5927,0.5934,0.5934,0.5932,0.5942,0.5921,0.5926,0.5939,0.5956,0.5928,0.5918,0.5914,0.597,0.597,0.5971,0.5971,0,0,0.5865,0.5882,0.5878,0.5881,0.5891,0.5888,0.588,0.5882,0.588,0.5883,0.5877,0.5873,0.5885,0.5886,0.5897,0.5889,0.5864,0.5903,0.5903,0.5895,0.5841,0.5831,0.5826,0.5872,0.5872,0.5871,0.584,0,0.5833,0.5822,0.5837,0.5822,0.5818,0.5839,0.5833,0.5838,0.5846,0.5844,0.5852,0.5849,0.5865,0.5866,0.586,0.5868,0.5853,0.587,0.5866,0.5866,0.5864,0.5821,0.581,0.5781,0.5837,0.5836,0.5835,0,0.5793,0.5796,0.5781,0.5793,0.5792,0.5786,0.5789,0.5787,0.5793,0.5799,0.5801,0.5814,0.5807,0.5825,0.5815,0.5827,0.5826,0.583,0.5829,0.5829,0.5848,0.5819,0.5772,0.5767,0.583,0.583,0.583,0,0.5755,0.5755,0.5746,0.5748,0.5762,0.5757,0.5762,0.5769,0.5769,0.5772,0.5772,0.5773,0.5773,0.5774,0.5787,0.5799,0.5776,0.5794,0.578,0.578,0.5774,0.5774,0.5726,0.5774,0.5774,0.5774,0.5774,0,0.5717,0.5707,0.5729,0.5724,0.5713,0.5731,0.5719,0.5727,0.5733,0.5729,0.5747,0.5743,0.5761,0.5758,0.5768,0.5759,0.5759,0.5764,0.5766,0.5762,0.5761,0.5761,0.5763,0.5773,0.5773,0.5773,0.5774,0,0.5672,0.5687,0.5678,0.5692,0.5695,0.5687,0.5698,0.5694,0.5703,0.5698,0.5698,0.5713,0.5711,0.5724,0.5724,0.5731,0.5717,0.5723,0.5715,0.5717,0.5702,0.5703,0.5652,0.5646,0.5698,0.5697,0.5697,0,0.5647,0.564,0.5653,0.5652,0.5657,0.5655,0.5656,0.5673,0.5672,0.568,0.5674,0.5674,0.5675,0.5671,0.5681,0.5681,0.5688,0.567,0.5688,0.5684,0.5687,0.5688,0.5687,0.5666,0.5665,0.5664,0.5664,0,0.56,0.5608,0.5609,0.5612,0.5612,0.5615,0.562,0.5618,0.5636,0.5635,0.5634,0.5635,0.5636,0.5635,0.5638,0.5643,0.5656,0.5659,0.5655,0.565,0.5646,0.5648,0.5704,0.5659,0.566,0.566,0.566,0.5661,0.5564,0.5559,0.5568,0.5568,0.5574,0.5577,0.5574,0.5584,0.5583,0.5586,0.5596,0.5593,0.56,0.5606,0.5609,0.5607,0.5616,0.5611,0.561,0.5608,0.5606,0.5647,0.5608,0.5608,0.5608,0.5608,0.5608,0,0.5519,0.5526,0.5526,0.5532,0.5532,0.5546,0.5552,0.555,0.5548,0.5554,0.5555,0.5554,0.5554,0.5565,0.5566,0.5562,0.5568,0.5562,0.5562,0.5563,0.5598,0.56,0.5557,0.5557,0.5557,0.5557,0.5557,0.5557,0.5495,0.5487,0.5496,0.5491,0.5498,0.5497,0.5499,0.5502,0.5507,0.5505,0.5506,0.5514,0.5521,0.5524,0.5524,0.5527,0.5527,0.5518,0.5523,0.5555,0.556,0.5565,0.5568,0.5518,0.5518,0.5489,0.5489,0.5488]}]]